Location: Tamazert
(32.6352°N, 5.2072°W)
Time: 04:06:45
(UTC+00:00)

Vanguard 2 - Pass Details

Date: 09 October 2022
Orbit: 553 x 2933 km, 32.9° (Epoch: 04 December)

Event Time Altitude Azimuth Distance (km) Brightness Sun altitude
Rises 12:24:26 0° 260° (W) 3,960 11.3 50.8°
Reaches altitude 10° 12:26:42 10° 260° (W) 3,238 11.0 50.7°
Maximum altitude 12:35:13 88° 174° (S) 1,789 10.4 50.5°
Drops below altitude 10° 12:49:45 10° 85° (E) 5,242 11.7 49.7°
Sets 12:54:29 0° 85° (E) 6,498 12.1 49.5°
